Weather in Zarechensk

Russia / Murmansk Oblast     66°40′53″N   31°25′58″E
temp.,
°C
wind,
m/s
gust,
m/s
humid.,
%
clouds,
%
prec.,
mm/h
press.,
hPa
HPBL,
m
24 july, sat
sat2400:00+8wnw3768100 0.0 1009270
03:00+8wnw41175100 0.0 1009644
06:00+9wnw5117172 0.0 1008921
09:00+10wnw51063100 0.0 10081336
12:00+12nw51057100 0.0 10091684
15:00+12wnw61064100 0.0 10091385
18:00+15wnw495598 0.1 10091320
21:00+13w486792 0.1 1009397
25 july, sun
sun2500:00+12w4875100 0.0 1009242
03:00+11w368593 0.1 1010183
06:00+12wnw378288 0.0 1011614
09:00+13nw466396 0.1 1012950
12:00+14nw475627 0.0 10131035
15:00+16nw5854100 0.0 10141171
18:00+14nnw1269100 0.0 101476
21:00+13wsw227688 0.1 101535
26 july, mon
mon2600:00+12nw2282100 0.1 101533
03:00+11w229265 0.9 101639
06:00+12w359091 0.0 1017177
09:00+14wnw378099 0.0 1018448
12:00+17nw366242 0.0 1019942
15:00+18nnw356173 0.0 1019926
18:00+18n455931 0.0 1019929
21:00+15ne35735 0.0 1020108
27 july, tue
tue2700:00+12se01865 0.0 102110
03:00+11wsw118874 0.0 102110
06:00+13wsw118079 0.0 102138
09:00+16ssw126887 0.0 1019251
12:00+19s35605 0.0 1017375
15:00+24s354697 0.0 10141339
18:00+23wsw375310 0.7 1012971
21:00+21wsw4106141 0.7 1010241
28 july, wed
wed2800:00+18w4773100 0.2 1010160
03:00+15w339091 0.3 100844
06:00+15n12880 0.0 100887
09:00+16ne347816 0.0 1009487
12:00+17e436020 0.0 1009757
15:00+18ese43511 0.0 1008691
18:00+17e44530 0.0 1007470
21:00+13ene47650 0.0 1007350